FW5215 Weather Reports


time (UTC)temp
C
wind
direction
speed
KPH
gust
KPH
rain 1hr
cm
rain 24hr
cm
rain mn
cm
humidity
%
barometer
mb
20260503071511 11 126 3.2 6.4 0.00 0.00 0.00 66 1004.1
20260503054512 12 113 0.0 3.2 0.00 0.00 0.00 63 1005.4
20260503051512 13 113 0.0 1.6 0.00 0.00 0.00 63 1005.6
20260503050024 13 113 1.6 3.2 0.00 0.00 0.00 56 1005.7
20260503044506 13 149 0.0 4.8 0.00 0.00 0.00 56 1005.6
20260503043115 14 147 0.0 3.2 0.00 0.00 0.00 55 1006.1
20260503041511 15 173 0.0 1.6 0.00 0.00 0.00 53 1006.2
20260503040009 15 238 0.0 9.7 0.00 0.00 0.00 54 1006.4
20260503034509 15 275 3.2 6.4 0.00 0.00 0.00 50 1006.6
20260503033005 15 263 3.2 12.9 0.00 0.00 0.00 49 1006.8
20260503031505 15 263 1.6 3.2 0.00 0.00 0.00 53 1006.9
20260503030115 15 242 0.0 4.8 0.00 0.00 0.00 50 1006.8
20260503024512 15 276 1.6 6.4 0.00 0.00 0.00 50 1006.9
20260503023008 15 216 1.6 6.4 0.00 0.00 0.00 56 1007.1
20260503021509 15 272 3.2 11.3 0.00 0.00 0.00 48 1006.9
20260503020006 15 279 0.0 8.0 0.00 0.00 0.00 51 1007.1
20260503014504 15 275 3.2 11.3 0.00 0.00 0.00 47 1007.2
20260503013022 15 272 4.8 14.5 0.00 0.00 0.00 47 1007.2
20260503011512 16 290 4.8 16.1 0.00 0.00 0.00 45 1007.0
20260503010011 16 195 0.0 6.4 0.00 0.00 0.00 45 1007.1
20260503004507 16 202 1.6 8.0 0.00 0.00 0.00 44 1007.2
20260503003004 16 199 0.0 4.8 0.00 0.00 0.00 47 1007.3
20260503001605 16 228 1.6 8.0 0.00 0.00 0.00 46 1007.6
20260503000014 16 217 1.6 8.0 0.00 0.00 0.00 45 1007.8
20260502234513 16 202 1.6 8.0 0.00 0.00 0.00 44 1007.9
20260502233014 16 196 1.6 8.0 0.00 0.00 0.00 44 1008.1
20260502231514 16 192 3.2 8.0 0.00 0.00 0.00 45 1008.3
20260502230012 16 265 4.8 12.9 0.00 0.00 0.00 41 1008.5
20260502224510 17 248 4.8 9.7 0.00 0.00 0.00 41 1008.7
20260502223006 17 271 4.8 14.5 0.00 0.00 0.00 41 1008.8
20260502221511 17 151 3.2 14.5 0.00 0.00 0.00 40 1009.1
20260502220013 16 219 6.4 14.5 0.00 0.00 0.00 41 1009.2
20260502214505 16 177 6.4 12.9 0.00 0.00 0.00 40 1009.4
20260502213105 16 271 6.4 11.3 0.00 0.00 0.00 45 1009.7
20260502211520 16 254 4.8 11.3 0.00 0.00 0.00 41 1009.9
20260502210011 16 203 6.4 16.1 0.00 0.00 0.00 42 1010.1
20260502204509 16 214 6.4 12.9 0.00 0.00 0.00 41 1010.3
20260502203007 16 283 6.4 12.9 0.00 0.00 0.00 43 1010.5
20260502201505 16 269 4.8 14.5 0.00 0.00 0.00 40 1010.8
20260502200105 16 259 4.8 11.3 0.00 0.00 0.00 42 1011.1
20260502194514 16 236 4.8 16.1 0.00 0.00 0.00 41 1011.3
20260502193014 16 249 4.8 11.3 0.00 0.00 0.00 41 1011.5
20260502191508 15 248 4.8 12.9 0.00 0.00 0.00 42 1011.9
20260502190011 15 217 3.2 11.3 0.00 0.00 0.00 41 1012.3
20260502184512 15 286 3.2 14.5 0.00 0.00 0.00 40 1012.5
20260502183007 14 278 8.0 14.5 0.00 0.00 0.00 39 1012.7
20260502181505 16 247 6.4 16.1 0.00 0.00 0.00 38 1012.8
20260502163008 15 253 4.8 12.9 0.00 0.00 0.00 36 1014.6
20260502161505 15 267 4.8 12.9 0.00 0.00 0.00 39 1014.8
20260502160108 14 242 3.2 8.0 0.00 0.00 0.00 39 1015.0
20260502123006 2 278 0.0 3.2 0.00 0.00 0.00 77 1016.3
20260502121508 1 242 0.0 3.2 0.00 0.00 0.00 81 1016.3
20260502120115 0 247 0.0 1.6 0.00 0.00 0.00 82 1016.3
20260502114510 0 247 0.0 3.2 0.00 0.00 0.00 84 1016.5
20260502113006 -1 186 0.0 3.2 0.00 0.00 0.00 82 1016.3
20260502111604 -1 180 0.0 0.0 0.00 0.00 0.00 80 1016.2
20260502110013 -1 180 0.0 3.2 0.00 0.00 0.00 80 1016.2
20260502104530 -1 184 0.0 1.6 0.00 0.00 0.00 79 1016.2
20260502103008 -1 184 0.0 1.6 0.00 0.00 0.00 79 1016.1
20260502101505 -1 184 0.0 3.2 0.00 0.00 0.00 80 1016.1
20260502091514 -1 103 0.0 0.0 0.00 0.00 0.00 77 1016.2